Temp
6 6 6 6 6 6 6 6 6 6 6 7 7 7 7 7 7 7 7 7 7 7 7 7 7 7 7 7 7 7 7 7 8 8 8 8 8 8 8 7 8 8 8 8 8
5 5 5 6 6 6 6 6 6 6 6 6 6 6 6 6 7 7 7 7 7 7 7 7 7 7 7 7 7 7 7 7 7 8 7 8 8 8 7 7 7 7 7 7 7
4 5 5 5 5 6 6 6 6 6 6 6 6 6 6 7 7 7 7 7 7 7 7 7 7 7 7 7 7 6 7 6 7 7 7 7 7 8 7 7 7 7 7 7 7
4 4 4 4 5 5 5 5 6 6 6 6 6 6 6 6 6 7 7 7 7 7 7 7 7 7 7 7 6 6 7 7 7 7 7 7 7 7 7 6 7 7 7 7 7
4 4 4 4 4 4 5 5 5 5 5 5 6 6 6 6 7 7 7 6 6 6 6 6 6 6 6 6 6 6 6 7 7 7 7 7 6 6 6 6 6 6 7 6 6
3 3 3 3 4 4 4 4 4 5 5 5 5 5 5 6 6 6 6 6 6 6 6 6 6 6 5 5 6 7 6 6 6 6 6 6 6 6 6 6 6 6 6 6 6
2 3 3 3 3 3 3 4 4 4 4 5 5 5 5 5 6 6 5 6 6 6 6 5 5 5 5 5 5 6 5 6 6 6 6 6 6 7 6 6 6 6 6 6 6
2 2 2 2 3 3 3 3 3 4 4 4 4 4 5 5 5 5 5 5 5 5 5 5 5 4 5 5 5 5 5 5 6 6 6 5 6 6 6 6 6 6 6 5 6
0 1 1 2 2 2 2 2 2 3 3 4 4 4 4 5 5 5 5 5 5 5 5 5 4 4 4 4 4 4 5 6 5 5 5 5 6 6 6 6 6 6 6 6 5
-1 -0 0 0 1 1 2 2 2 2 3 3 3 3 4 5 5 5 5 5 4 4 4 4 4 3 4 4 4 4 5 6 5 5 5 6 6 6 5 6 6 6 6 6 6
-1 -1 -0 -0 0 0 1 2 2 2 2 3 3 3 4 5 4 5 5 4 4 3 4 4 3 4 5 5 5 5 5 6 5 5 5 6 6 5 6 6 6 6 6 6 6
-2 -2 -1 -1 -1 0 0 1 1 1 2 3 3 3 3 4 4 4 4 4 4 4 3 3 3 5 4 4 4 4 4 5 5 5 5 5 6 5 5 5 5 5 6 6 5
-3 -2 -2 -2 -2 -1 -0 0 0 0 1 2 2 2 3 3 3 4 4 4 4 3 3 3 4 4 3 3 3 3 4 4 4 4 4 4 5 5 4 5 5 5 6 6 6
-4 -4 -3 -2 -2 -2 -1 -1 0 -0 -0 1 2 3 3 3 2 4 3 3 3 3 2 1 2 3 3 3 3 3 4 4 3 3 3 4 1 5 5 6 6 5 5 5 5
-4 -4 -3 -3 -3 -2 -2 -3 -1 -1 -1 2 2 2 3 3 3 3 3 2 2 3 1 2 2 3 2 3 3 2 3 3 3 3 2 2 2 4 5 5 6 6 5 5 5
-4 -4 -4 -3 -3 -3 -4 -4 -2 -2 -3 1 1 1 2 2 2 3 2 2 2 0 1 1 2 2 2 2 2 2 2 2 2 1 -2 2 2 3 4 5 6 5 6 6 6
-4 -4 -4 -4 -3 -4 -5 -4 -4 -2 0 1 1 2 1 1 -1 0 1 1 1 -0 -0 0 1 2 2 2 1 1 1 -1 -1 -4 -3 3 1 3 4 5 5 6 6 6 6
-4 -4 -4 -4 -5 -5 -5 -5 -4 -2 0 0 1 0 1 -1 -1 0 -0 0 1 1 1 0 -0 1 1 1 2 1 1 1 -2 -2 -1 1 0 3 4 4 4 5 5 5 5
-4 -4 -4 -4 -5 -6 -5 -4 -3 -2 -1 -1 0 0 0 -0 -0 -1 -1 0 1 1 0 1 1 1 1 1 1 -0 0 2 1 1 -1 1 2 3 4 4 4 4 4 4 4
-4 -4 -4 -5 -4 -5 -5 -4 -4 -3 -2 -2 -1 -0 0 -0 -1 -1 -1 1 0 0 1 1 1 -0 -0 -1 -1 0 0 -0 1 -4 -3 2 3 4 5 5 4 4 4 3 4
-5 -4 -4 -4 -4 -6 -6 -5 -4 -3 -3 -3 -2 -3 -2 -0 0 -1 0 1 1 -0 -0 0 1 -1 -2 -1 -0 -1 -1 0 0 1 -3 -4 1 4 5 5 4 4 3 3 3
-6 -6 -5 -5 -5 -5 -5 -4 -4 -4 -3 -4 -4 -3 -3 -3 -1 -1 -0 -0 1 0 -0 -0 -0 -0 0 -0 -1 -1 -1 -0 1 -1 1 -1 1 4 4 4 4 4 3 2 1
-6 -5 -5 -6 -6 -5 -5 -5 -4 -4 -4 -4 -4 -3 -2 -2 -1 -1 -0 -1 -0 0 -0 -0 -1 -1 -2 -2 -2 -2 -1 -1 -0 -0 -0 -3 0 3 4 4 4 3 2 1 1
-5 -5 -6 -6 -6 -5 -5 -5 -5 -5 -5 -5 -5 -4 -3 -2 -2 -1 -1 -1 -1 -0 -0 -1 -1 0 -1 1 1 -1 1 -1 -1 -1 -0 0 2 2 3 3 3 3 1 -0 -0
-4 -5 -6 -6 -6 -5 -6 -5 -5 -5 -5 -5 -4 -5 -5 -4 -3 -3 -3 -2 -2 -2 -2 -2 -1 -1 -0 -0 -0 1 1 -0 -1 -0 -1 -0 0 1 2 2 2 2 1 0 -0
-4 -4 -4 -4 -5 -5 -6 -6 -6 -5 -5 -5 -5 -5 -5 -5 -4 -4 -4 -3 -3 -4 -3 -2 -2 -2 -2 -1 -1 -1 -1 -0 -1 -1 -1 -1 -0 0 1 0 1 1 1 0 -0
-4 -4 -4 -4 -4 -4 -4 -4 -5 -5 -5 -5 -5 -5 -5 -5 -5 -5 -4 -4 -6 -5 -5 -4 -3 -3 -3 -2 -2 -3 -1 -1 -1 -1 -0 -1 0 0 0 -0 -0 0 0 0 -1
Height
3098 3097 3097 3096 3096 3096 3097 3097 3098 3099 3100 3102 3103 3104 3105 3106 3107 3107 3109 3112 3113 3113 3115 3116 3117 3118 3120 3121 3122 3123 3126 3127 3128 3129 3131 3131 3132 3133 3135 3135 3137 3138 3140 3142 3142
3095 3095 3094 3094 3093 3094 3094 3094 3095 3097 3098 3100 3101 3101 3102 3102 3103 3105 3107 3108 3110 3111 3112 3113 3114 3117 3117 3118 3120 3121 3123 3125 3126 3126 3127 3129 3129 3131 3133 3134 3135 3136 3137 3140 3141
3092 3091 3091 3091 3091 3091 3092 3092 3094 3095 3095 3097 3098 3099 3099 3100 3102 3103 3104 3105 3106 3109 3110 3112 3113 3114 3114 3115 3118 3119 3120 3122 3122 3124 3125 3126 3127 3128 3130 3130 3131 3134 3136 3138 3139
3089 3088 3087 3087 3088 3088 3089 3090 3090 3091 3092 3094 3095 3095 3096 3097 3101 3098 3100 3102 3104 3105 3107 3109 3111 3110 3112 3113 3115 3116 3118 3118 3120 3121 3122 3122 3123 3125 3127 3127 3126 3131 3134 3135 3137
3085 3085 3085 3085 3084 3085 3085 3086 3087 3087 3088 3089 3090 3090 3092 3093 3094 3096 3097 3099 3100 3102 3104 3106 3108 3108 3110 3111 3112 3113 3114 3115 3117 3118 3118 3120 3120 3121 3123 3125 3125 3127 3130 3132 3134
3082 3081 3080 3080 3080 3080 3081 3081 3083 3083 3084 3085 3085 3086 3087 3089 3090 3093 3094 3095 3097 3099 3100 3102 3105 3106 3107 3108 3109 3110 3111 3112 3114 3114 3115 3117 3117 3117 3119 3122 3123 3124 3126 3128 3130
3076 3076 3076 3075 3075 3075 3076 3077 3077 3079 3079 3080 3081 3081 3082 3086 3086 3088 3091 3092 3093 3096 3097 3099 3100 3103 3104 3104 3106 3108 3109 3109 3110 3112 3112 3113 3112 3114 3114 3117 3120 3121 3122 3124 3127
3070 3070 3070 3070 3069 3069 3070 3072 3073 3073 3074 3075 3075 3076 3077 3080 3081 3084 3086 3087 3090 3091 3094 3095 3097 3098 3100 3102 3104 3105 3106 3105 3107 3108 3108 3110 3109 3112 3112 3114 3116 3117 3119 3120 3122
3065 3064 3064 3064 3064 3064 3064 3066 3066 3068 3069 3069 3070 3071 3072 3074 3076 3079 3081 3083 3085 3087 3089 3092 3093 3095 3097 3100 3101 3100 3100 3102 3103 3105 3105 3106 3107 3107 3109 3110 3111 3113 3114 3117 3119
3060 3060 3060 3059 3059 3059 3060 3061 3061 3063 3064 3065 3065 3068 3067 3068 3071 3073 3076 3078 3080 3083 3085 3087 3089 3089 3092 3093 3092 3095 3097 3100 3100 3101 3101 3101 3104 3104 3106 3106 3107 3109 3111 3114 3116
3053 3052 3053 3055 3055 3054 3056 3057 3061 3060 3057 3060 3059 3060 3062 3064 3066 3068 3070 3072 3075 3077 3079 3080 3082 3080 3083 3087 3091 3095 3095 3096 3097 3098 3098 3098 3100 3102 3102 3103 3103 3104 3106 3110 3112
3048 3048 3047 3047 3048 3050 3051 3052 3053 3054 3052 3053 3053 3054 3057 3059 3060 3063 3065 3068 3068 3071 3075 3077 3072 3078 3083 3085 3087 3089 3090 3092 3092 3094 3095 3095 3095 3098 3096 3099 3100 3100 3101 3106 3108
3042 3042 3042 3042 3042 3044 3046 3048 3049 3048 3047 3046 3047 3047 3051 3055 3055 3057 3061 3062 3063 3066 3068 3069 3072 3074 3078 3079 3082 3083 3083 3088 3090 3091 3092 3092 3090 3091 3093 3093 3095 3097 3097 3101 3103
3037 3037 3037 3038 3040 3039 3041 3042 3043 3045 3043 3038 3039 3040 3043 3048 3047 3051 3056 3059 3058 3060 3065 3066 3068 3070 3072 3074 3078 3079 3081 3084 3086 3088 3088 3089 3084 3084 3086 3087 3090 3092 3094 3096 3098
3030 3031 3031 3032 3033 3034 3037 3037 3037 3040 3040 3034 3030 3032 3035 3040 3043 3043 3049 3050 3052 3056 3060 3059 3060 3063 3066 3069 3073 3073 3077 3079 3082 3084 3084 3084 3084 3075 3080 3080 3082 3085 3088 3090 3092
3025 3025 3025 3025 3028 3029 3030 3032 3034 3038 3031 3026 3026 3026 3030 3031 3034 3037 3042 3044 3048 3051 3053 3054 3057 3059 3060 3063 3067 3069 3073 3076 3079 3080 3079 3075 3079 3070 3071 3073 3076 3077 3081 3084 3086
3019 3019 3018 3019 3021 3023 3025 3028 3032 3026 3022 3023 3023 3023 3025 3027 3027 3032 3034 3035 3040 3045 3047 3049 3050 3052 3056 3059 3062 3064 3069 3074 3080 3080 3073 3069 3071 3062 3065 3067 3068 3071 3073 3076 3078
3012 3012 3012 3015 3014 3016 3018 3024 3022 3018 3020 3019 3020 3022 3022 3025 3026 3028 3031 3032 3034 3039 3042 3042 3047 3046 3048 3051 3055 3057 3062 3062 3071 3072 3064 3064 3058 3054 3058 3061 3060 3063 3066 3068 3070
3005 3006 3008 3009 3007 3007 3014 3016 3015 3016 3018 3019 3018 3019 3021 3023 3025 3024 3025 3025 3027 3031 3036 3038 3040 3039 3040 3044 3050 3051 3054 3057 3058 3059 3060 3054 3051 3050 3051 3052 3053 3056 3057 3060 3064
3001 3001 3002 3006 3006 3008 3010 3011 3012 3014 3015 3017 3015 3017 3021 3020 3021 3020 3021 3018 3021 3025 3030 3033 3033 3033 3036 3040 3043 3045 3048 3053 3054 3061 3059 3046 3044 3041 3043 3044 3045 3048 3050 3053 3056
2997 2997 3000 3002 3004 3005 3004 3007 3010 3010 3012 3013 3012 3014 3014 3016 3015 3016 3016 3016 3017 3019 3024 3027 3029 3031 3032 3031 3032 3038 3040 3044 3046 3047 3045 3046 3038 3036 3038 3040 3041 3043 3045 3048 3051
2994 2995 2997 3000 3003 3003 3003 3007 3006 3008 3009 3010 3010 3011 3013 3013 3014 3014 3012 3013 3013 3015 3016 3020 3024 3024 3025 3026 3028 3029 3032 3036 3038 3039 3038 3036 3032 3033 3034 3035 3037 3039 3041 3044 3048
2995 2996 2997 2998 3001 3003 3003 3004 3004 3005 3006 3006 3007 3007 3009 3009 3011 3010 3009 3008 3009 3011 3013 3015 3018 3021 3022 3023 3021 3021 3024 3028 3031 3032 3030 3034 3028 3030 3032 3033 3033 3035 3037 3040 3044
3000 2999 2999 2999 2999 3000 3001 3001 3000 3001 2999 3000 3001 3002 3003 3002 3003 3003 3004 3005 3006 3007 3009 3010 3009 3010 3009 3009 3011 3011 3013 3018 3025 3026 3023 3019 3023 3026 3028 3029 3030 3031 3034 3037 3040
3005 3004 3000 2999 2999 2998 2997 2997 2995 2995 2993 2992 2990 2993 2996 2997 2998 2998 2999 3000 3002 3003 3004 3006 3004 3006 3005 3006 3007 3007 3008 3010 3013 3014 3018 3014 3017 3023 3025 3026 3027 3028 3030 3032 3035
3008 3005 3002 3001 2998 2997 2994 2993 2992 2991 2988 2987 2987 2987 2988 2990 2993 2994 2992 2994 2997 2999 3000 3000 2999 3001 3001 3002 3003 3003 3004 3005 3006 3008 3009 3010 3010 3016 3019 3020 3022 3024 3026 3028 3031
3009 3007 3003 3001 2997 2996 2995 2993 2991 2989 2988 2985 2983 2982 2982 2983 2984 2985 2986 2987 2990 2994 2993 2996 2995 2997 2996 2998 2998 2996 2994 2997 2999 3001 3003 3001 3006 3010 3012 3014 3018 3020 3021 3023 3026
Wind_Speed
9 9 10 10 11 12 11 12 12 12 13 13 14 15 14 14 14 13 12 12 12 12 12 11 12 11 13 13 13 14 15 15 11 9 8 14 13 16 19 18 16 14 12 8 9
11 11 10 11 12 13 13 12 13 13 14 15 15 15 15 15 15 14 14 13 13 12 12 11 11 13 14 13 15 16 18 14 13 15 14 16 13 14 19 20 18 16 15 12 10
13 13 12 12 12 13 15 15 15 16 16 16 16 16 17 17 17 16 16 15 15 14 14 14 13 14 14 15 16 18 20 17 16 19 18 17 14 17 17 21 21 18 16 14 13
16 16 15 14 14 14 15 17 17 17 17 18 18 19 19 19 14 14 19 18 17 16 16 15 15 14 15 15 15 18 16 19 18 16 16 17 17 18 17 17 21 21 18 17 16
19 18 18 17 16 16 17 17 18 18 18 19 19 20 20 20 21 16 10 14 19 18 17 16 16 15 14 11 16 15 18 17 17 16 17 17 17 18 18 23 23 19 18 19 18
21 21 21 21 19 18 19 18 19 19 19 19 20 20 21 21 21 20 20 17 12 19 19 18 17 16 14 15 17 16 18 18 17 17 18 18 19 19 20 20 24 22 20 20 20
24 23 23 23 22 19 20 21 20 20 20 20 21 22 24 22 22 19 20 20 19 16 18 19 19 18 18 17 16 16 17 18 17 18 20 18 21 20 23 19 21 22 22 22 22
25 24 24 25 24 23 21 21 22 21 21 21 21 23 25 24 24 22 21 20 21 20 20 19 18 20 19 20 15 14 17 19 18 19 21 19 22 12 21 22 21 20 24 23 23
25 24 24 25 24 25 25 25 21 22 21 22 22 23 25 25 25 23 24 22 21 22 21 20 20 21 22 20 16 17 15 13 19 16 16 18 15 20 16 17 21 22 19 21 20
25 26 24 23 24 23 22 22 24 23 23 23 23 21 23 19 22 25 25 25 24 24 24 25 24 25 25 25 21 16 16 17 17 16 17 19 21 18 15 18 22 22 21 20 19
24 24 24 24 23 21 21 22 23 26 27 25 24 23 22 15 21 21 22 26 27 25 26 27 29 34 31 29 26 17 18 10 15 18 21 17 23 25 24 18 20 24 24 24 22
23 23 22 23 22 23 22 21 21 23 25 25 26 28 25 22 23 20 23 25 30 30 26 26 34 32 23 22 26 26 24 19 14 15 18 18 21 21 23 22 21 23 23 23 23
25 23 23 24 21 21 21 20 20 20 24 29 25 26 26 27 25 22 19 22 25 28 29 33 25 19 28 26 25 24 27 25 21 16 16 20 25 25 25 27 24 26 26 24 23
24 26 22 22 26 21 20 20 19 18 14 20 28 31 30 26 30 28 24 20 25 25 25 23 30 23 22 28 26 28 26 22 21 20 14 16 7 22 22 30 30 31 30 28 26
23 25 25 25 23 23 18 15 13 15 5 10 24 26 28 33 29 30 26 29 28 25 25 22 20 29 28 26 21 26 23 19 22 22 21 18 9 21 26 30 31 34 37 37 35
25 26 23 23 23 24 21 16 14 12 8 7 11 20 26 30 33 31 30 32 29 19 26 31 21 20 25 28 23 21 17 13 13 12 7 26 22 18 26 30 30 32 36 38 37
21 21 20 20 20 23 21 24 11 10 6 9 12 17 19 26 30 31 29 34 32 24 27 30 28 25 22 20 22 25 19 5 1 2 6 13 21 32 17 27 33 34 34 33 36
25 22 18 19 18 24 26 20 12 10 15 6 7 11 14 16 22 25 26 29 35 28 11 26 14 32 29 29 25 29 26 10 8 5 5 15 14 19 24 33 27 32 30 32 33
21 19 16 15 15 21 26 20 6 11 12 8 16 14 12 16 16 18 26 30 32 37 25 19 15 16 28 31 27 28 30 28 6 3 1 8 11 18 24 28 37 39 32 31 30
17 15 17 8 13 14 21 26 15 8 8 11 8 7 13 17 19 17 15 15 32 30 36 16 8 16 23 25 28 25 26 14 14 4 5 9 17 17 16 26 31 31 34 32 28
15 10 13 11 14 17 23 24 17 21 18 17 18 15 16 10 22 21 9 15 14 26 28 30 19 9 17 24 33 31 25 17 16 13 5 2 8 19 20 24 19 22 24 27 26
13 7 11 11 15 22 26 18 20 19 17 19 21 17 27 12 9 14 15 14 9 21 26 37 18 16 21 17 25 30 33 32 14 8 18 4 9 5 10 15 21 21 19 23 25
6 3 7 16 11 16 17 24 25 26 22 19 15 20 26 23 23 19 21 20 23 15 14 27 18 7 4 15 21 26 34 38 35 16 17 8 7 22 27 16 16 20 20 21 24
9 5 5 6 16 10 18 24 28 30 33 30 27 22 26 25 25 20 18 19 20 23 21 21 26 20 14 8 10 26 36 38 38 24 24 33 22 16 16 19 20 19 21 22 24
22 16 12 7 12 15 19 22 19 20 27 23 27 37 25 26 28 21 24 21 16 15 22 23 20 23 24 16 12 12 12 25 40 44 23 30 36 32 23 16 17 21 23 24 25
15 15 11 11 8 12 11 8 10 15 17 20 21 19 23 31 27 20 24 26 24 16 17 27 17 18 20 22 24 22 19 18 20 33 45 39 35 25 20 25 24 23 24 25 27
16 14 12 11 12 13 11 13 16 18 12 15 15 16 16 17 24 34 29 27 17 16 21 23 22 18 12 17 15 21 31 29 28 30 29 36 33 32 31 25 24 29 31 30 30
Wind_Direction
275 268 268 255 251 245 238 233 232 231 226 226 223 222 222 228 234 230 233 231 233 227 223 227 225 226 228 224 223 226 231 237 243 249 237 237 253 222 227 219 229 239 251 244 235
275 267 259 258 252 247 245 239 238 234 233 228 228 228 231 237 239 237 234 233 232 234 229 227 227 230 231 228 227 225 232 238 230 232 225 235 248 234 231 231 234 232 241 237 232
271 267 263 256 252 246 244 241 235 234 231 234 234 232 234 236 241 237 240 236 235 234 235 233 230 228 231 232 233 234 237 237 234 239 247 252 241 244 232 234 236 238 241 238 238
266 265 257 254 250 248 243 242 239 239 238 234 233 236 237 239 241 244 242 242 236 233 235 235 233 230 237 237 237 238 246 247 253 250 250 248 243 241 233 226 242 233 232 234 239
265 263 262 257 249 247 244 242 241 237 238 239 239 239 241 241 241 239 240 240 240 235 233 235 234 229 226 247 244 248 252 249 255 254 250 250 247 242 230 228 236 241 234 235 236
266 262 259 260 254 250 248 242 242 241 238 239 241 242 241 242 245 241 243 244 244 234 230 232 234 228 225 225 239 246 245 257 255 255 253 247 245 241 240 238 238 241 239 236 237
268 263 260 258 258 253 253 250 243 243 240 240 242 243 243 240 241 243 241 241 234 243 230 224 226 230 228 234 247 248 254 258 257 257 253 249 247 246 241 240 237 237 238 238 241
267 265 263 259 255 253 249 252 252 246 245 241 243 246 247 243 243 242 243 240 236 234 239 231 220 223 228 235 241 243 246 256 263 258 252 246 256 256 246 248 244 242 239 241 243
276 269 263 260 258 255 256 249 248 251 249 246 245 248 251 248 246 242 240 237 238 233 232 227 221 226 226 231 240 237 240 255 255 256 250 242 253 254 253 241 238 238 240 232 232
277 274 275 268 262 255 252 256 256 249 247 247 246 246 242 250 245 243 241 239 233 232 226 229 229 227 229 223 218 221 247 243 251 251 261 245 240 241 249 245 239 236 236 229 227
272 268 265 269 268 265 262 255 256 255 247 246 247 245 238 247 246 242 238 235 232 227 229 227 225 230 233 237 240 226 242 263 246 249 254 260 249 237 248 251 238 236 234 233 236
279 278 273 265 259 260 256 255 257 262 258 247 247 246 245 245 247 243 234 229 229 229 222 228 232 240 241 243 240 230 239 235 243 247 260 255 252 240 245 246 237 237 238 226 228
275 274 269 267 262 255 256 256 252 257 260 254 248 246 247 243 247 243 237 231 231 229 225 232 240 242 229 229 227 232 234 237 240 250 253 253 256 246 235 242 235 232 233 229 228
277 273 277 268 267 263 255 254 247 251 261 259 255 249 240 238 240 244 235 232 228 230 221 238 236 238 237 236 235 237 241 243 236 239 243 248 265 255 248 247 243 233 233 240 241
273 278 277 270 271 265 247 248 228 226 263 240 230 235 234 230 237 235 229 229 226 229 208 224 234 232 233 237 232 238 239 239 234 235 240 241 246 259 243 244 240 236 235 239 244
285 280 271 267 267 265 241 214 186 184 236 241 223 225 225 222 223 228 225 224 222 214 216 225 236 234 233 236 229 229 221 218 224 226 252 237 229 251 238 241 236 239 240 239 241
294 288 268 264 264 254 233 234 195 219 207 235 246 242 228 220 220 222 221 215 210 199 214 225 230 233 231 222 214 217 206 116 139 196 232 221 223 234 234 237 241 243 242 241 240
286 283 274 262 264 234 215 204 213 236 227 237 237 255 234 209 226 232 224 222 220 216 208 216 229 233 233 226 224 212 200 193 185 201 211 210 224 233 237 232 241 241 242 240 237
284 278 268 262 299 201 198 205 222 232 235 230 236 250 253 213 232 225 221 232 232 218 212 209 223 231 226 222 220 207 207 220 213 214 167 218 235 239 239 235 235 237 240 240 236
297 271 246 241 250 226 205 215 226 237 243 244 205 216 232 227 218 212 220 243 231 229 226 212 218 223 218 213 214 214 211 201 203 174 232 227 227 235 239 241 236 234 238 237 235
329 255 237 231 219 214 216 225 242 261 252 241 236 250 233 283 235 216 216 250 232 221 221 216 220 222 213 215 216 208 205 204 206 219 184 197 237 236 244 244 249 242 235 232 229
317 221 226 207 203 217 231 245 248 247 255 253 240 255 243 226 246 239 245 238 238 230 220 213 223 227 230 227 220 220 221 212 202 208 223 229 238 214 244 248 241 242 233 226 223
44 20 241 206 210 217 230 230 245 256 252 253 254 245 249 248 247 258 258 249 252 242 216 216 215 194 222 234 228 224 225 224 221 225 223 194 243 248 251 256 242 236 227 219 216
26 33 337 233 213 248 245 248 250 256 260 256 246 250 253 251 243 241 247 254 255 237 222 217 213 214 224 219 220 220 230 226 223 229 232 234 235 236 245 243 243 231 222 219 215
33 35 10 287 276 284 274 265 279 281 281 281 259 244 244 247 248 240 240 246 260 240 218 213 226 225 231 241 241 240 242 233 226 229 224 244 247 246 247 255 258 244 229 222 220
7 11 26 23 352 2 331 317 357 347 303 266 247 234 241 247 246 249 248 250 245 249 247 226 233 237 243 247 254 254 245 235 233 238 237 242 248 251 241 244 244 241 234 227 219
354 349 329 335 333 329 330 328 312 307 316 322 313 260 255 258 246 247 254 243 224 243 242 243 242 251 261 261 253 263 247 246 249 253 256 252 262 257 247 252 250 250 248 234 225